STARLINK-36143

Last updated on Fri Dec 19 2025 00:02:10 GMT+0000 (Coordinated Universal Time)

1 67056U 25294AC 25351.83335648 -.01436678 61751-3 -31688-2 0 9990 2 67056 43.0000 151.2146 0001613 277.5348 165.1450 15.97193848 2122
UTC large
Height (km)
Speed (km/s)
/
Latitude / Longitude
Inclination (degrees)
Orbital Period (minutes)
Azimuth
Elevation
Range (km)
Doppler Factor

Next 0 passes for location: London (51.5072 / 0.1276)

Sorry there are no passes over London.